This is the latest recevied weather packets stored in our database for station/object DB0TBG. If no packets are shown the sender has not sent any weather packets the latest 10 day(s).
| Time | Temp. | Humidity | Pressure | Rain* | Wind** | Luminosity | Snow |
|---|---|---|---|---|---|---|---|
| 1777729868 | 28.89° C | 11% | 975 hPa | 0 mm | 0 m/s | - | - |
| 1777729269 | 29.44° C | 11% | 975 hPa | 0 mm | 0 m/s | - | - |
| 1777728669 | 29.44° C | 11% | 976 hPa | 0 mm | 0 m/s | - | - |
| 1777728067 | 28.89° C | 11% | 976 hPa | 0 mm | 0 m/s | - | - |
| 1777727468 | 28.89° C | 11% | 976 hPa | 0 mm | 0 m/s | - | - |
| 1777726869 | 29.44° C | 11% | 976 hPa | 0 mm | 0 m/s | - | - |
| 1777726266 | 28.89° C | 11% | 976 hPa | 0 mm | 0 m/s | - | - |
| 1777725667 | 28.89° C | 11% | 976 hPa | 0 mm | 0 m/s | - | - |
| 1777725068 | 28.89° C | 11% | 977 hPa | 0 mm | 0 m/s | - | - |
| 1777724465 | 28.33° C | 11% | 977 hPa | 0 mm | 0 m/s | - | - |
| 1777723866 | 27.78° C | 11% | 977 hPa | 0 mm | 0 m/s | - | - |
| 1777723242 | 28.33° C | 13% | 977 hPa | 0 mm | 0 m/s | - | - |
| 1777722032 | 28.33° C | 14% | 978 hPa | 0 mm | 0 m/s | - | - |
| 1777721431 | 27.78° C | 16% | 978 hPa | 0 mm | 0 m/s | - | - |
| 1777720828 | 27.22° C | 16% | 978 hPa | 0 mm | 0 m/s | - | - |
| 1777720219 | 26.67° C | 19% | 978 hPa | 0 mm | 0 m/s | - | - |
| 1777719620 | 26.11° C | 20% | 978 hPa | 0 mm | 0 m/s | - | - |
| 1777719018 | 25.56° C | 17% | 978 hPa | 0 mm | 0 m/s | - | - |
| 1777718419 | 25.56° C | 20% | 978 hPa | 0 mm | 0 m/s | - | - |
| 1777717819 | 25° C | 21% | 978 hPa | 0 mm | 0 m/s | - | - |
| 1777717215 | 25° C | 21% | 979 hPa | 0 mm | 0 m/s | - | - |
| 1777716616 | 24.44° C | 23% | 979 hPa | 0 mm | 0 m/s | - | - |
| 1777716015 | 23.89° C | 22% | 979 hPa | 0 mm | 0 m/s | - | - |
| 1777715404 | 23.33° C | 22% | 979 hPa | 0 mm | 0 m/s | - | - |
| 1777714794 | 23.33° C | 24% | 979 hPa | 0 mm | 0 m/s | - | - |
* Rain latest hour (hover to see other rain measurements)
** Current wind speed in m/s (hover to see current wind gust speed)